Terminal Aerodrome Forecast
Issued by NWS

Home | Current Version | Previous Version | Text Only | Print | Product List | Glossary On
Versions: 1 2 3 4 5 6 7 8 9 10 11 12 13 14 15 16 17 18 19 20 21 22 23 24
000
FTPA31 PHFO 311100
TAFMDY
TAF
PMDY 311135Z 3112/0112 25006KT P6SM VCTS SCT020CB BKN035 OVC100
     FM312100 25006KT P6SM VCSH SCT025 BKN050 BKN150
     FM010300 03007KT P6SM SCT025 BKN050
      AMD LTD TO CLD AND WIND=

USA.gov is the U.S. government's official web portal to all federal, state and local government web resources and services.